Weather History for Wrangell, AK

Change the Weather History Date:

Saturday, October 5, 2013

  Actual Average Record
Temperature  
Mean Temperature 48 °F -  
Max Temperature 51 °F 52 °F 66 °F (1964)
Min Temperature 46 °F 41 °F 30 °F (1954)
Degree Days  
Heating Degree Days 16    
Moisture  
Dew Point 43 °F    
Average Humidity 83    
Maximum Humidity 87    
Minimum Humidity 71    
Precipitation  
Precipitation 0.39 in - - ()
Sea Level Pressure  
Sea Level Pressure 29.98 in    
Wind  
Wind Speed 4 mph (ESE)    
Max Wind Speed 8 mph    
Max Gust Speed -    
Visibility 10 miles    
Events      
Averages and records for this station are not official NWS values.
T = Trace of Precipitation, MM = Missing Value Source: NWS Daily Summary

Daily Weather History Graph

Daily Weather History Graph

Search for Another Location

Airport:

Trip Planner

Search our weather history database for the weather conditions in past years. The results will help you decide how hot, cold, wet, or windy it might be!

Date:

Astronomy

Oct. 05, 2013 Rise Set
Actual Time 7:01 AM AKDT 6:12 PM AKDT
Civil Twilight 6:24 AM AKDT 6:50 PM AKDT
Nautical Twilight 5:40 AM AKDT 7:33 PM AKDT
Astronomical Twilight 4:55 AM AKDT 8:18 PM AKDT
Moon 8:04 AM AKDT (10/5) 6:16 PM AKDT (10/5)
Length of Visible Light 12h 25m
Length of Day
11h 10m
New Moon, 1% of the Moon is Illuminated
Oct 5
New Moon
Oct 11
First Quarter
Oct 18
Full
Oct 26
Last Quarter
Nov 3
New

Hourly Weather History & Observations

Time (AKDT) Temp. Windchill Dew Point Humidity Pressure Visibility Wind Dir Wind Speed Gust Speed Precip Events Conditions
12:16 AM 50.0 °F - 42.8 °F 76% 29.91 in 10.0 mi SSW 8.1 mph - 0.01 in   Overcast
12:36 AM 50.0 °F - 42.8 °F 76% 29.91 in 10.0 mi SSE 4.6 mph - 0.01 in   Overcast
12:56 AM 48.2 °F - 42.8 °F 82% 29.92 in 10.0 mi South 5.8 mph - 0.01 in   Overcast
1:16 AM 50.0 °F - 42.8 °F 76% 29.92 in 10.0 mi South 3.5 mph - N/A   Overcast
1:36 AM 50.0 °F - 41.0 °F 71% 29.93 in 9.0 mi WSW 3.5 mph - 0.01 in   Overcast
1:56 AM 48.2 °F - 41.0 °F 76% 29.94 in 10.0 mi SSW 6.9 mph - 0.01 in   Overcast
2:16 AM 48.2 °F - 42.8 °F 82% 29.94 in 10.0 mi SE 4.6 mph - 0.01 in   Overcast
2:36 AM 48.2 °F - 44.6 °F 87% 29.94 in 10.0 mi Calm Calm - 0.01 in   Mostly Cloudy
2:56 AM 48.2 °F - 41.0 °F 76% 29.94 in 10.0 mi South 5.8 mph - 0.02 in   Mostly Cloudy
3:16 AM 48.2 °F - 41.0 °F 76% 29.95 in 10.0 mi Calm Calm - 0.01 in   Overcast
3:36 AM 48.2 °F - 41.0 °F 76% 29.96 in 9.0 mi Calm Calm - 0.02 in   Overcast
3:56 AM 48.2 °F - 41.0 °F 76% 29.96 in 10.0 mi SSE 6.9 mph - 0.02 in   Overcast
4:16 AM 48.2 °F - 42.8 °F 82% 29.96 in 10.0 mi ESE 4.6 mph - 0.01 in   Overcast
4:36 AM 48.2 °F - 42.8 °F 82% 29.97 in 10.0 mi Calm Calm - 0.01 in   Overcast
4:56 AM 48.2 °F - 42.8 °F 82% 29.98 in 10.0 mi Calm Calm - 0.01 in   Overcast
5:16 AM 48.2 °F - 41.0 °F 76% 29.98 in 10.0 mi South 4.6 mph - N/A   Overcast
5:36 AM 50.0 °F - 41.0 °F 71% 29.99 in 10.0 mi SSW 3.5 mph - N/A   Overcast
5:56 AM 48.2 °F - 42.8 °F 82% 30.00 in 5.0 mi SSW 4.6 mph - 0.04 in   Overcast
6:16 AM 48.2 °F - 42.8 °F 82% 30.00 in 5.0 mi Calm Calm - 0.02 in   Overcast
6:36 AM 48.2 °F - 42.8 °F 82% 30.01 in 5.0 mi East 3.5 mph - 0.03 in   Overcast
6:56 AM 48.2 °F - 42.8 °F 82% 30.01 in 5.0 mi East 6.9 mph - 0.05 in   Overcast
7:16 AM 48.2 °F - 42.8 °F 82% 30.02 in 5.0 mi East 4.6 mph - 0.02 in   Overcast
7:36 AM 48.2 °F - 42.8 °F 82% 30.03 in 5.0 mi SE 4.6 mph - 0.03 in   Overcast
7:56 AM 46.4 °F 44.3 °F 42.8 °F 87% 30.03 in 10.0 mi East 4.6 mph - 0.07 in   Overcast
8:16 AM 48.2 °F - 42.8 °F 82% 30.04 in 10.0 mi East 6.9 mph - 0.08 in   Overcast
8:36 AM 48.2 °F - 42.8 °F 82% 30.05 in 10.0 mi East 5.8 mph - 0.12 in   Overcast
8:56 AM 48.2 °F - 44.6 °F 87% 30.05 in 10.0 mi ESE 5.8 mph - 0.13 in   Overcast
9:16 AM 48.2 °F - 42.8 °F 82% 30.05 in 10.0 mi East 8.1 mph - N/A   Overcast
9:36 AM 48.2 °F - 42.8 °F 82% 30.06 in 10.0 mi SSE 3.5 mph - 0.01 in   Overcast
9:56 AM 48.2 °F - 42.8 °F 82% 30.06 in 10.0 mi East 5.8 mph - 0.01 in   Overcast
10:16 AM 48.2 °F - 44.6 °F 87% 30.06 in 10.0 mi ESE 5.8 mph - 0.01 in   Overcast
10:36 AM 48.2 °F - 44.6 °F 87% 30.07 in 10.0 mi East 5.8 mph - 0.01 in   Overcast
10:56 AM 48.2 °F - 44.6 °F 87% 30.07 in 10.0 mi SE 3.5 mph - 0.01 in   Overcast
11:16 AM 48.2 °F - 44.6 °F 87% 30.07 in 10.0 mi East 8.1 mph - N/A   Overcast
11:36 AM 48.2 °F - 44.6 °F 87% 30.07 in 10.0 mi East 5.8 mph - N/A   Overcast
11:56 AM 50.0 °F - 44.6 °F 82% 30.07 in 10.0 mi ESE 5.8 mph - N/A   Overcast
12:16 PM 50.0 °F - 44.6 °F 82% 30.07 in 10.0 mi East 5.8 mph - N/A   Overcast
12:36 PM 50.0 °F - 44.6 °F 82% 30.07 in 10.0 mi ESE 5.8 mph - N/A   Overcast
12:56 PM 51.8 °F - 44.6 °F 76% 30.07 in 10.0 mi Calm Calm - N/A   Overcast
1:16 PM 51.8 °F - 44.6 °F 76% 30.06 in 10.0 mi Calm Calm - N/A   Overcast
1:36 PM 50.0 °F - 44.6 °F 82% 30.06 in 10.0 mi NNW 3.5 mph - N/A   Overcast
1:56 PM 50.0 °F - 44.6 °F 82% 30.05 in 10.0 mi North 4.6 mph - 0.01 in   Overcast
2:16 PM 50.0 °F - 44.6 °F 82% 30.04 in 10.0 mi North 3.5 mph - N/A   Overcast
2:36 PM 48.2 °F - 44.6 °F 87% 30.04 in 10.0 mi NNE 3.5 mph - N/A   Overcast
2:56 PM 50.0 °F - 44.6 °F 82% 30.03 in 10.0 mi NNE 4.6 mph - N/A   Overcast
3:16 PM 51.8 °F - 44.6 °F 76% 30.02 in 10.0 mi Calm Calm - N/A   Overcast
3:36 PM 51.8 °F - 44.6 °F 76% 30.02 in 10.0 mi Calm Calm - N/A   Overcast
3:56 PM 50.0 °F - 44.6 °F 82% 30.02 in 10.0 mi North 3.5 mph - N/A   Mostly Cloudy
4:16 PM 48.2 °F - 44.6 °F 87% 30.02 in 10.0 mi Calm Calm - N/A   Mostly Cloudy
4:36 PM 48.2 °F - 42.8 °F 82% 30.01 in 10.0 mi Calm Calm - N/A   Mostly Cloudy
4:56 PM 48.2 °F - 44.6 °F 87% 30.00 in 10.0 mi Calm Calm - N/A   Mostly Cloudy
5:16 PM 48.2 °F - 44.6 °F 87% 29.99 in 10.0 mi Calm Calm - N/A   Mostly Cloudy
5:36 PM 48.2 °F - 44.6 °F 87% 29.99 in 10.0 mi Calm Calm - N/A   Mostly Cloudy
5:56 PM 48.2 °F - 42.8 °F 82% 29.98 in 10.0 mi Calm Calm - N/A   Mostly Cloudy
6:16 PM 48.2 °F - 44.6 °F 87% 29.98 in 10.0 mi Calm Calm - N/A   Mostly Cloudy
6:36 PM 48.2 °F - 42.8 °F 82% 29.97 in 10.0 mi Calm Calm - N/A   Mostly Cloudy
6:56 PM 48.2 °F - 42.8 °F 82% 29.96 in 10.0 mi Calm Calm - N/A   Mostly Cloudy
7:16 PM 48.2 °F - 42.8 °F 82% 29.95 in 10.0 mi Calm Calm - N/A   Mostly Cloudy
7:36 PM 46.4 °F 45.2 °F 42.8 °F 87% 29.94 in 10.0 mi North 3.5 mph - N/A   Mostly Cloudy
7:56 PM 46.4 °F - 42.8 °F 87% 29.94 in 10.0 mi Calm Calm - N/A   Mostly Cloudy
8:16 PM 46.4 °F - 42.8 °F 87% 29.93 in 10.0 mi Calm Calm - N/A   Mostly Cloudy
8:36 PM 46.4 °F - 42.8 °F 87% 29.93 in 10.0 mi Calm Calm - N/A   Mostly Cloudy
8:56 PM 46.4 °F - 42.8 °F 87% 29.91 in 10.0 mi Calm Calm - N/A   Overcast
9:16 PM 46.4 °F - 42.8 °F 87% 29.91 in 10.0 mi Calm Calm - N/A   Overcast
9:36 PM 46.4 °F - 42.8 °F 87% 29.90 in 10.0 mi Calm Calm - N/A   Overcast
9:56 PM 46.4 °F - 42.8 °F 87% 29.90 in 10.0 mi Calm Calm - N/A   Overcast
10:16 PM 46.4 °F 45.2 °F 42.8 °F 87% 29.88 in 10.0 mi ESE 3.5 mph - N/A   Overcast
10:36 PM 46.4 °F - 42.8 °F 87% 29.87 in 10.0 mi Calm Calm - N/A   Overcast
10:56 PM 46.4 °F 45.2 °F 42.8 °F 87% 29.87 in 10.0 mi ESE 3.5 mph - N/A   Overcast
11:16 PM 46.4 °F - 42.8 °F 87% 29.85 in 10.0 mi Calm Calm - N/A   Overcast
11:36 PM 46.4 °F - 42.8 °F 87% 29.84 in 10.0 mi Calm Calm - N/A   Overcast
11:56 PM 46.4 °F - 42.8 °F 87% 29.83 in 10.0 mi Calm Calm - N/A   Overcast